GFSSGP_925_thetae_132.txt.gz
Theta_e
310 311 311 319 323 323 328 327 325 329 329 327 325 330 336 342 348 349 348 351 347 347 345 339 333 332 331 330 331 332 336 343 345 345 344 339 332 328 333 338 337 336 337 333 325 330 331 328 330
310 313 319 316 322 327 327 324 327 327 327 323 325 340 349 346 341 350 350 350 348 346 345 339 333 332 331 330 330 329 329 332 339 342 340 335 331 329 336 336 336 336 336 331 326 332 332 333 339
311 315 318 321 319 324 325 324 325 326 323 325 326 331 350 355 353 349 348 351 349 346 343 338 334 332 331 331 331 329 328 329 332 334 334 331 327 331 335 336 333 332 330 330 325 333 333 335 339
311 310 311 321 323 320 323 325 322 323 323 324 324 326 349 350 354 348 351 351 349 347 344 338 334 333 332 331 332 331 328 329 332 331 329 326 328 334 336 335 333 333 329 326 324 329 332 333 335
309 306 312 317 319 320 321 322 323 324 323 323 323 325 354 349 353 353 352 352 349 349 346 339 335 334 332 331 332 332 330 329 331 330 329 329 333 336 337 336 334 334 330 324 323 324 329 331 333
307 304 308 311 315 317 318 321 322 322 320 321 320 337 352 348 352 353 353 352 349 347 346 342 336 335 334 332 332 332 333 330 330 328 328 327 332 335 336 336 335 335 334 327 324 324 325 328 331
306 305 306 307 309 310 315 316 319 320 319 319 320 344 351 349 351 352 353 352 351 349 347 342 338 336 335 335 333 332 333 333 331 329 327 325 326 331 335 335 336 338 335 326 324 326 326 326 328
305 306 307 306 309 309 312 313 314 316 316 316 340 341 345 347 352 352 353 353 351 350 348 344 342 339 337 337 336 334 332 333 335 332 330 330 331 334 335 339 339 340 335 327 323 324 326 327 327
305 306 306 307 309 309 311 313 314 315 315 314 345 350 347 350 352 352 352 353 353 352 347 344 345 344 343 342 339 338 335 333 335 334 332 331 330 332 335 340 342 341 336 330 327 325 325 325 326
305 304 305 307 308 311 311 311 312 313 313 314 330 348 349 350 351 351 350 351 352 353 351 346 345 345 345 345 344 342 340 337 334 335 335 334 333 333 334 335 337 338 336 331 332 330 327 325 324
304 307 306 309 310 309 311 311 311 312 311 313 316 349 348 349 349 350 350 349 349 348 348 346 345 344 344 343 344 344 343 342 338 334 335 336 336 335 335 335 336 337 337 334 332 332 330 326 324
305 304 307 307 309 311 311 312 311 310 311 312 326 344 349 350 348 348 348 348 348 347 347 348 348 348 347 345 347 347 346 344 342 338 335 337 338 338 337 335 334 335 336 335 332 330 331 330 328
305 307 305 306 306 307 307 309 310 310 311 311 311 323 347 349 348 347 347 346 343 349 349 349 349 349 348 350 345 346 347 346 345 342 337 336 337 339 339 338 336 334 334 334 333 332 332 331 332
307 306 308 307 307 307 308 309 309 310 311 311 311 319 342 348 347 345 345 346 343 345 350 349 349 347 346 347 346 347 346 346 346 345 341 338 338 339 341 340 338 334 331 331 332 333 335 336 338
307 308 307 306 307 308 307 308 308 310 310 310 316 340 345 346 345 346 347 344 343 340 348 349 347 346 346 345 344 345 343 345 345 345 344 342 341 341 342 340 341 334 333 340 340 339 339 340 341
308 306 307 306 306 307 308 309 309 309 310 311 311 336 344 343 345 346 346 344 341 340 340 343 345 347 346 344 343 343 342 344 344 343 343 342 341 340 341 339 335 336 333 340 342 343 343 343 341
310 312 307 310 306 308 307 308 309 309 309 311 310 330 342 340 337 343 345 344 342 341 341 345 347 348 346 344 343 342 343 342 340 340 343 335 337 339 338 338 334 337 337 339 340 341 332 342 343
311 314 314 311 309 307 307 308 310 310 310 310 309 311 337 339 339 339 342 343 341 341 341 344 347 347 345 344 344 345 344 344 342 342 340 340 341 343 343 343 342 341 335 343 339 341 342 342 343
310 312 312 311 312 310 307 307 307 307 308 308 308 309 309 333 337 338 337 338 340 340 342 343 344 345 344 344 343 343 343 343 343 342 343 344 345 345 345 344 344 344 344 342 342 342 341 341 342
312 314 313 312 311 309 310 309 308 308 308 307 308 308 309 311 329 334 336 337 338 339 340 340 340 344 344 344 344 343 341 342 343 344 344 341 339 342 340 340 340 334 335 337 338 338 337 338 337
315 315 312 313 312 311 312 310 311 311 308 308 308 308 309 309 311 325 335 337 337 337 339 339 338 338 343 344 345 344 344 343 343 344 343 342 339 341 339 334 334 334 334 335 335 335 334 335 329
315 316 313 313 311 312 310 310 311 311 310 310 308 307 307 308 309 315 332 332 336 335 332 333 335 335 338 342 342 342 338 335 337 339 339 338 335 334 334 334 335 337 337 338 335 332 331 333 338
316 317 316 316 311 311 311 310 310 311 314 312 315 319 321 319 306 309 327 332 331 332 331 332 332 334 335 336 336 338 338 333 333 332 331 331 333 335 333 337 339 337 335 335 335 332 335 336 334
316 317 316 310 308 311 309 310 309 312 324 320 320 325 325 324 321 317 320 326 327 329 331 333 333 333 334 335 335 334 334 333 333 332 334 333 334 331 331 334 337 334 336 337 336 335 333 336 333
317 317 313 312 311 313 308 310 310 325 324 323 322 324 323 324 325 325 323 327 328 329 329 330 333 332 334 335 334 333 331 330 329 329 328 325 322 321 321 325 324 325 326 327 331 333 333 333 332
317 314 310 314 312 310 310 311 316 326 325 326 324 324 324 324 322 323 324 323 322 322 323 324 325 323 324 323 322 322 322 321 319 319 318 316 316 315 315 315 315 315 315 315 316 317 318 318 318
319 317 309 310 311 311 316 327 328 327 327 328 325 325 324 322 323 322 319 318 318 317 318 318 319 319 319 319 320 319 318 317 316 316 315 314 314 313 313 313 313 313 313 313 313 313 313 313 313
318 314 315 312 316 318 329 329 330 331 331 329 326 325 325 323 321 319 317 315 315 315 316 317 318 317 317 317 317 316 315 314 314 313 313 312 312 311 310 309 309 308 308 307 307 308 308 308 308
318 317 313 310 315 323 329 329 325 328 327 328 326 325 321 318 315 311 310 309 309 312 313 314 314 314 313 312 312 312 312 312 312 312 310 308 308 308 306 305 305 304 304 303 303 303 303 304 305
318 315 311 314 323 320 321 332 326 325 323 324 323 317 313 310 309 308 308 308 307 307 308 309 310 310 310 311 311 312 311 310 309 308 306 306 306 305 304 303 303 303 303 303 303 303 303 304 304

GFSSGP_925_thetae_138.txt.gz
Theta_e
314 316 315 320 331 333 335 334 334 332 336 334 333 336 342 344 348 358 354 354 352 356 355 346 339 341 343 346 350 347 346 337 332 332 334 335 331 331 340 344 346 343 339 331 330 328 326 328 326
317 314 317 325 332 336 335 334 335 333 334 333 333 335 349 351 351 356 357 355 354 356 354 348 339 341 344 347 349 346 345 335 333 334 335 333 331 331 337 341 345 339 329 326 332 331 327 325 324
314 316 319 323 329 334 336 334 334 333 332 332 332 333 340 356 355 353 356 354 355 354 350 348 338 340 343 347 347 346 344 337 338 337 335 332 330 332 334 341 339 337 327 329 334 332 331 328 328
313 316 319 322 324 328 332 334 332 333 332 331 331 334 339 352 355 353 355 354 354 352 349 343 336 338 341 345 346 346 344 342 343 340 336 331 329 333 339 339 340 340 329 332 336 337 339 333 338
313 317 317 318 319 322 327 330 332 332 332 331 330 333 333 349 357 356 354 354 353 350 348 343 334 335 337 341 343 344 345 345 345 342 336 331 330 336 336 338 337 336 332 329 337 337 338 341 342
315 316 316 318 319 320 323 326 329 330 331 331 330 331 337 350 355 356 353 353 351 349 348 346 333 332 333 334 337 339 342 343 343 339 335 331 330 335 338 337 337 335 332 332 331 335 336 337 337
316 316 316 317 318 319 319 321 324 326 327 328 329 329 338 347 355 356 353 353 350 349 347 346 342 336 331 330 330 331 333 333 333 333 331 328 330 335 338 337 336 336 333 329 329 328 330 333 334
316 317 318 318 318 317 318 317 319 319 320 321 322 325 329 350 349 357 355 353 351 350 347 346 344 343 343 340 330 329 329 331 330 328 327 326 330 335 337 336 336 336 336 332 329 328 329 329 330
316 317 319 320 317 318 317 316 317 318 319 320 323 329 337 343 353 356 354 353 351 350 348 346 344 343 342 343 340 333 331 330 329 329 327 329 338 340 340 340 341 334 336 333 327 325 326 328 329
315 318 319 320 319 317 317 317 317 317 318 318 319 327 340 348 355 358 356 355 352 350 349 346 345 344 343 343 344 343 343 340 339 338 338 335 336 338 338 341 337 336 337 337 330 327 327 325 331
316 319 319 318 317 317 317 317 317 317 318 319 319 320 336 342 352 357 357 356 353 350 350 348 347 347 346 346 346 344 345 344 344 343 342 340 342 342 341 343 343 344 341 341 339 338 337 335 336
317 317 317 318 316 316 316 317 317 317 318 318 318 319 328 340 349 356 357 356 354 352 352 350 349 350 348 347 348 347 346 346 347 347 347 346 345 344 341 339 339 340 339 339 339 337 336 338 338
317 317 315 316 315 315 316 316 317 317 317 317 317 318 319 326 339 350 357 356 355 353 353 352 351 352 351 351 350 350 349 348 348 348 349 347 346 346 345 343 341 339 338 337 338 337 338 338 337
317 315 316 315 316 315 315 316 315 316 316 316 316 317 318 320 324 336 356 358 356 354 354 354 353 354 354 354 353 352 352 350 350 349 349 348 347 347 346 347 345 343 341 338 336 336 338 339 335
316 316 316 316 315 315 315 315 315 316 315 316 317 318 319 320 321 327 345 358 356 354 354 355 354 354 354 354 354 354 352 351 350 350 350 349 348 348 348 346 346 344 343 342 339 339 339 339 338
316 317 317 317 317 317 315 317 318 317 316 316 316 317 318 320 323 327 336 355 355 353 354 354 353 353 355 354 355 353 352 351 351 350 350 351 350 349 349 346 345 344 344 342 340 338 339 341 340
318 318 317 318 316 317 316 317 318 317 318 318 317 317 318 320 328 332 339 347 354 353 353 354 354 353 354 354 354 354 353 352 351 350 350 351 350 350 350 347 347 347 345 343 340 338 341 345 347
320 319 319 319 317 316 317 317 317 318 317 318 319 318 319 320 324 332 341 347 352 352 350 353 355 355 355 354 354 353 352 351 350 349 349 352 351 350 350 347 347 347 345 345 344 343 341 344 346
320 320 319 318 318 317 318 318 319 318 318 318 319 319 320 321 323 328 343 350 352 352 351 351 352 353 353 354 353 351 352 350 349 349 350 350 349 348 348 348 348 348 349 348 349 346 346 345 343
319 320 320 319 317 317 319 319 318 318 318 318 319 320 320 321 325 337 346 351 350 352 352 351 351 353 352 352 352 351 350 349 349 349 349 348 348 348 348 348 347 347 346 346 346 346 346 344 343
320 320 321 321 319 317 319 319 319 318 318 318 319 320 321 321 322 326 340 346 350 352 352 351 352 353 352 353 352 349 349 348 348 348 348 347 347 348 348 346 345 344 344 342 342 342 342 343 342
322 319 319 319 319 320 319 321 320 320 319 319 319 319 320 321 322 322 325 337 344 349 351 351 352 352 351 350 349 349 349 350 348 349 347 346 344 343 342 342 342 342 343 343 340 340 341 340 341
320 319 318 318 319 319 319 320 322 321 320 319 319 319 320 321 321 322 323 330 339 344 346 346 347 348 347 347 348 348 348 348 345 343 341 341 338 336 336 337 338 339 339 339 337 337 339 340 339
319 319 319 318 318 320 320 320 322 320 320 319 319 322 325 327 326 324 324 334 339 341 342 343 344 345 345 346 347 348 347 345 343 342 340 337 335 332 330 331 331 331 331 331 331 333 333 333 334
319 321 323 321 321 322 320 320 321 324 325 320 325 330 331 330 327 327 332 337 339 341 342 341 340 340 341 342 342 343 342 341 339 337 334 331 329 326 324 324 323 323 322 323 324 327 327 328 330
321 321 322 324 324 322 320 321 323 331 332 330 333 332 331 331 331 333 334 334 335 337 337 337 337 338 337 336 335 334 332 330 329 328 327 325 323 321 319 319 318 317 317 316 316 318 320 320 322
320 320 320 322 322 322 320 324 331 333 331 331 332 330 328 328 330 333 334 334 335 336 335 335 334 332 330 329 328 327 326 325 324 322 321 319 318 317 316 315 315 313 313 312 311 312 314 315 316
319 319 320 322 324 324 321 323 324 334 332 331 330 329 327 328 328 328 329 330 330 330 331 330 329 328 327 326 325 323 321 320 319 318 317 316 315 314 314 313 313 313 313 313 313 313 313 314 314
320 320 320 321 322 324 323 324 327 332 333 331 329 327 329 329 328 328 328 328 327 327 325 324 323 322 321 320 319 318 318 317 316 315 315 314 314 313 312 312 312 312 312 313 313 313 312 312 313
320 321 321 321 323 322 325 336 331 334 331 329 327 326 325 324 323 322 321 320 319 320 320 319 319 318 317 317 316 316 316 315 315 314 313 313 312 312 311 311 312 312 312 312 312 312 312 312 312

GFSSGP_925_thetae_141.txt.gz
Theta_e
309 318 320 321 329 333 334 334 332 334 334 337 337 338 340 344 352 372 355 355 355 356 355 347 341 342 344 350 349 342 340 337 331 332 333 336 334 339 341 341 342 340 338 340 339 337 334 336 331
321 317 317 323 331 336 337 334 335 335 335 335 335 337 339 352 354 357 357 353 356 357 355 352 340 341 343 347 351 344 344 336 332 332 334 335 334 340 343 346 343 341 335 331 331 329 328 329 327
317 316 319 321 327 333 337 336 335 335 335 334 334 336 343 357 354 356 358 354 356 355 353 353 340 341 343 345 351 346 345 335 332 332 334 333 335 342 344 346 344 335 329 333 335 332 329 328 327
316 317 319 320 322 327 332 336 336 336 334 333 333 334 342 342 349 356 356 354 355 353 350 351 339 341 343 346 350 346 344 334 333 334 335 333 334 338 339 344 338 335 330 340 337 336 334 333 333
316 319 318 319 321 324 328 331 335 335 335 334 332 332 341 349 350 356 354 354 353 350 349 348 339 341 344 348 349 346 343 335 336 337 335 332 332 335 340 340 340 339 333 339 337 339 339 336 342
317 318 319 319 320 322 324 327 330 334 334 334 333 332 339 347 349 356 353 353 351 348 350 347 342 341 343 347 347 346 344 340 342 340 336 332 332 339 340 339 337 338 335 334 337 337 338 341 341
318 319 319 320 321 322 323 324 326 329 333 334 333 333 342 344 351 356 353 353 350 348 348 346 346 345 342 345 346 346 345 345 345 342 337 332 331 337 337 336 336 336 333 332 329 332 335 336 336
319 320 320 321 322 322 324 323 323 324 327 328 330 330 332 349 348 356 353 352 350 349 347 345 343 343 346 348 344 344 344 344 344 339 335 332 331 335 336 335 334 334 333 328 326 325 326 328 330
319 320 321 321 321 322 324 321 322 322 322 323 324 325 341 346 346 353 354 352 351 349 347 345 342 341 340 341 343 338 341 340 338 336 334 333 338 342 342 340 341 333 334 332 328 325 325 326 327
321 320 321 322 323 323 323 322 321 320 320 321 322 325 337 344 345 352 356 354 352 350 348 345 344 343 343 342 344 341 341 340 340 340 342 337 337 341 342 342 342 337 334 335 332 326 323 323 331
321 320 321 321 322 323 322 322 321 320 321 321 321 323 332 342 346 349 355 353 353 351 349 346 345 345 344 344 345 344 344 342 340 340 342 338 336 339 337 341 344 343 339 343 340 339 337 334 333
321 319 320 321 322 321 321 321 321 321 321 322 322 322 326 335 343 348 352 354 353 352 351 348 347 347 345 345 347 345 345 345 345 345 344 340 341 342 341 340 343 343 342 344 340 341 340 338 337
323 321 320 320 321 321 319 320 320 321 321 322 321 321 321 330 338 343 352 354 354 353 352 350 349 349 349 348 347 346 346 346 347 348 349 346 347 345 345 341 340 339 339 338 338 338 338 338 339
321 321 321 320 319 319 318 319 319 320 321 321 320 320 320 321 329 340 352 356 355 354 353 352 351 352 351 351 349 349 349 348 348 348 349 351 349 348 348 347 346 343 341 340 338 337 337 338 339
321 321 320 320 319 319 319 318 319 320 320 319 319 319 320 320 322 329 343 355 359 356 356 354 353 354 353 354 355 353 351 351 349 348 350 352 351 350 350 349 347 345 344 343 342 340 338 338 338
319 320 321 321 319 319 318 319 319 320 320 319 319 320 320 321 322 323 326 353 358 357 358 357 355 357 356 355 355 354 353 352 351 350 351 352 352 350 351 350 346 346 345 344 342 340 338 337 337
319 320 320 321 321 319 318 318 320 321 320 320 320 320 320 321 322 323 327 351 359 358 356 358 356 355 356 356 355 354 354 353 353 352 351 351 352 351 352 350 347 350 347 345 343 342 341 339 339
321 321 321 320 322 320 320 320 321 321 320 321 321 320 320 320 321 324 329 344 358 357 357 357 356 355 356 356 356 353 353 353 353 352 350 350 351 351 350 349 348 350 349 348 347 348 348 348 344
322 323 322 322 321 320 320 321 321 321 321 321 322 322 321 321 322 326 334 341 356 357 356 357 356 357 357 358 355 355 353 353 351 349 350 351 349 349 350 349 349 351 351 351 351 350 349 348 347
322 324 324 323 322 320 321 321 321 321 321 321 322 322 322 322 322 326 333 344 350 356 355 356 357 358 357 356 355 353 353 351 349 349 351 349 349 349 349 349 350 350 347 347 346 346 347 346 345
322 323 324 324 322 322 321 322 322 322 322 321 322 322 322 322 323 327 340 348 351 354 355 355 356 357 355 354 354 354 352 350 351 350 349 349 349 349 349 348 348 347 346 345 345 345 345 345 343
323 322 323 322 323 322 321 324 324 323 322 322 322 322 323 323 323 331 340 350 353 354 354 355 355 355 355 355 354 352 351 350 350 349 348 347 346 347 346 345 344 344 344 346 345 343 343 342 342
321 321 322 324 324 323 322 323 325 323 323 322 322 322 323 323 324 328 334 339 347 354 354 354 354 353 353 354 351 351 350 350 349 348 346 346 342 340 339 339 338 338 339 338 338 339 339 337 339
319 321 322 323 324 325 325 323 324 325 324 323 323 322 322 323 323 324 325 333 341 347 352 352 352 352 350 350 351 351 352 349 346 346 344 342 340 335 334 333 333 332 332 332 332 333 334 334 335
318 322 324 324 323 326 325 323 326 326 324 323 323 322 322 323 323 324 330 340 342 344 346 348 348 347 348 347 348 348 348 348 345 344 341 337 333 330 328 327 326 326 324 324 324 325 327 328 327
320 324 327 327 326 324 324 324 323 328 327 324 322 325 327 328 326 326 334 338 340 343 344 345 345 345 344 342 341 342 342 339 336 334 332 330 328 325 323 322 321 319 318 318 318 318 320 320 320
319 323 324 321 322 323 325 329 335 333 333 334 334 333 332 330 333 337 338 337 340 340 341 341 341 339 338 336 335 334 332 331 329 327 326 324 322 320 319 319 319 318 318 318 318 318 318 318 318
321 322 325 323 325 324 324 330 333 334 336 335 335 333 334 334 334 335 337 338 338 338 337 336 335 334 333 332 330 328 326 325 324 323 321 320 319 319 318 317 317 317 317 317 318 317 317 317 317
321 322 324 323 323 327 327 328 330 333 334 334 332 331 332 333 333 334 335 334 334 334 333 332 331 329 327 325 324 323 322 321 320 320 319 319 318 317 316 315 315 315 315 316 317 317 316 316 316
318 321 323 325 327 326 326 340 330 333 334 332 332 332 333 332 332 333 332 330 329 328 327 326 325 323 322 321 321 320 320 320 319 318 317 316 316 315 315 315 315 315 315 316 316 316 316 316 316

GFSSGP_925_thetae_144.txt.gz
Theta_e
309 313 317 322 326 330 333 333 332 332 333 336 338 339 339 354 364 372 353 355 354 356 353 344 342 345 351 350 344 339 335 333 331 331 333 333 335 336 334 337 337 337 338 338 338 337 336 336 331
317 319 320 321 326 331 334 333 333 334 335 337 337 337 338 360 356 356 355 356 355 356 350 345 342 344 350 350 345 339 337 334 331 332 334 333 337 340 342 342 340 337 337 338 336 331 329 331 326
315 323 319 318 322 330 333 334 335 335 336 335 335 335 343 358 356 359 354 357 356 356 353 346 342 342 348 350 347 341 341 333 331 332 334 332 339 343 349 344 342 338 331 331 331 330 329 327 326
316 319 318 317 318 323 328 333 335 336 335 334 334 335 345 345 355 359 354 357 356 355 354 344 341 342 344 349 349 343 343 334 332 332 334 332 337 345 347 346 340 332 332 338 337 334 330 328 329
317 318 316 316 318 321 324 328 332 334 337 334 333 333 350 347 352 357 355 357 354 352 357 343 340 342 343 347 350 346 344 334 333 333 334 332 335 342 341 344 339 333 336 339 337 335 332 333 337
319 318 317 318 318 320 322 325 329 330 335 336 335 333 350 346 353 355 354 355 352 351 355 343 341 343 345 346 349 346 344 334 334 336 334 332 332 336 339 339 339 336 330 336 335 336 336 334 340
321 318 318 318 319 321 322 324 325 327 333 335 335 333 345 347 354 354 354 353 350 353 351 349 349 346 347 348 348 346 343 336 338 338 336 332 331 334 339 337 333 331 329 327 332 333 334 338 340
322 321 319 320 320 321 323 324 324 324 325 333 334 334 340 352 353 354 354 352 349 350 349 349 352 352 349 349 347 346 344 340 343 341 338 333 330 335 336 335 333 330 327 326 326 326 329 332 333
322 321 321 320 321 321 324 324 325 325 325 327 329 331 347 347 351 353 354 351 349 348 347 345 347 349 350 353 348 346 345 345 345 343 338 334 336 338 341 336 339 333 332 331 328 326 325 325 325
324 323 320 321 322 322 323 324 324 322 322 323 324 326 343 345 348 356 355 352 350 348 347 344 343 343 343 346 347 347 348 347 345 344 339 340 340 341 345 343 342 342 334 335 334 329 326 325 326
324 324 321 320 322 323 323 323 324 322 321 321 321 323 336 343 345 350 354 353 351 349 347 344 342 341 342 343 340 343 343 343 342 342 341 339 337 341 340 343 342 340 339 334 336 335 331 327 331
320 323 322 322 322 322 323 324 323 322 322 322 322 324 330 336 345 347 353 353 352 350 348 346 345 343 344 346 341 343 343 342 341 340 341 338 339 341 338 341 343 345 340 340 339 343 342 341 336
319 321 323 322 321 321 322 322 322 322 322 323 323 323 323 333 342 345 348 353 353 352 350 347 347 345 347 346 344 346 346 345 344 344 342 339 340 344 343 341 342 345 343 343 343 341 341 343 341
322 321 323 322 321 321 321 321 321 321 322 322 322 322 322 326 335 342 347 351 355 353 352 349 349 346 347 352 347 346 347 346 348 347 347 344 347 348 346 345 345 344 343 342 343 343 341 340 340
321 322 323 323 322 321 321 320 320 320 321 322 322 322 321 322 323 339 343 353 355 356 353 351 352 349 349 352 351 347 347 349 348 350 351 350 350 351 349 349 350 348 347 345 344 342 341 339 338
321 322 323 323 323 322 320 320 320 320 321 321 321 321 321 322 321 323 343 350 358 357 358 353 354 351 351 351 353 353 353 349 350 349 351 352 352 351 352 350 349 349 347 347 346 344 342 341 340
322 324 323 322 322 322 320 319 321 321 321 322 322 321 321 322 323 323 326 348 359 358 348 355 356 354 355 353 356 352 351 354 353 351 352 352 353 352 350 352 350 349 349 347 346 346 346 346 345
322 323 324 323 323 322 322 321 320 321 321 322 322 322 322 323 323 324 325 331 360 356 355 355 361 358 357 356 354 352 352 352 351 351 352 353 351 352 350 352 349 349 349 348 347 346 346 346 346
321 321 321 322 322 323 323 322 320 322 321 322 322 323 322 323 323 323 325 344 360 359 360 359 358 358 356 357 356 355 352 352 353 352 351 350 352 351 350 348 349 348 346 346 348 348 347 347 346
321 321 322 322 322 323 324 322 322 322 322 323 323 323 324 324 323 325 330 347 361 360 358 358 357 356 359 357 357 355 355 353 352 350 351 351 349 350 351 348 346 347 349 349 345 344 345 346 346
323 322 323 324 323 322 323 322 323 322 323 322 324 324 325 324 324 326 338 348 360 355 354 354 356 356 356 358 356 353 353 350 349 348 349 348 348 349 348 349 347 346 345 346 347 346 344 345 343
323 322 322 324 325 325 323 323 325 324 323 323 324 324 325 324 326 329 339 346 360 358 355 354 355 356 354 355 355 353 353 350 349 348 346 349 349 348 346 345 344 343 342 344 341 342 341 340 340
321 321 322 323 325 326 324 323 326 325 325 324 324 324 325 325 325 327 341 347 354 356 356 354 354 353 353 354 354 351 350 349 347 347 348 345 343 341 340 341 340 338 339 337 335 336 335 335 335
319 321 322 323 326 329 325 323 324 326 326 326 325 324 325 325 325 330 338 347 354 356 355 354 352 353 353 350 352 350 348 347 347 348 347 343 339 336 334 333 332 330 329 329 328 328 331 329 331
315 321 326 326 329 332 326 324 326 327 326 326 325 324 325 325 325 332 338 343 356 354 353 352 352 351 350 349 350 350 348 347 347 344 344 341 334 331 328 327 326 324 322 322 319 317 323 321 322
315 320 329 327 333 331 328 327 327 326 328 326 325 324 325 325 325 328 339 343 349 348 348 348 348 347 347 348 347 347 346 343 336 336 333 331 328 326 324 323 322 320 320 320 319 319 319 320 319
315 318 324 325 325 325 327 327 330 330 328 326 325 325 325 326 328 330 338 341 346 345 347 345 342 341 342 341 337 334 334 332 329 328 326 324 324 321 321 320 320 319 319 319 319 319 319 318 318
318 319 325 328 327 327 325 330 333 335 333 328 328 332 334 338 341 341 343 341 340 339 339 338 337 335 335 334 332 330 328 326 325 323 322 321 320 320 319 318 318 317 317 317 317 318 317 318 317
319 321 324 326 326 329 328 330 335 337 336 338 339 337 336 336 337 341 340 339 337 336 336 335 334 332 330 328 326 325 324 323 322 321 320 320 318 317 317 316 316 316 316 317 317 317 318 317 317
320 321 325 330 330 326 331 337 333 338 338 337 336 338 338 339 339 338 337 336 334 333 332 330 329 327 326 324 323 322 322 321 320 319 318 317 316 316 316 316 317 317 317 317 318 316 316 317 317

GFSSGP_925_thetae_147.txt.gz
Theta_e
318 310 310 317 319 320 324 326 327 329 329 330 334 344 359 355 356 359 345 353 351 348 345 344 347 349 351 348 343 336 332 330 330 331 330 329 329 331 332 334 336 337 337 337 338 336 336 335 328
312 314 316 317 319 322 325 327 328 329 329 333 334 352 358 361 353 345 355 356 351 348 344 344 347 350 349 346 340 336 333 330 330 331 330 331 331 333 336 337 338 338 338 337 337 333 330 329 325
309 316 319 313 313 322 324 326 328 330 329 333 333 343 356 360 357 355 355 355 351 348 345 343 346 349 349 345 339 337 334 331 331 332 330 331 335 337 341 341 340 337 334 332 328 327 327 325 324
316 313 314 310 311 315 320 322 325 327 330 331 332 347 344 356 357 357 355 354 350 350 345 342 344 349 349 346 340 338 336 331 331 332 330 331 337 343 344 342 338 331 327 329 329 327 326 325 327
316 311 311 310 310 313 315 320 322 323 325 331 331 349 349 358 356 356 355 354 353 353 346 342 342 345 348 348 342 341 337 331 332 332 330 330 336 343 344 342 334 327 331 331 329 329 326 326 331
312 311 311 311 310 313 315 316 318 321 324 327 333 348 348 356 355 356 355 354 353 355 346 342 342 343 346 348 345 343 339 332 332 334 331 329 335 340 338 338 334 328 330 330 332 331 329 332 337
316 314 312 312 312 313 314 316 318 318 319 323 333 346 346 354 354 356 354 353 353 354 343 342 344 345 345 348 348 345 340 333 334 335 333 330 331 335 337 336 335 333 328 331 332 333 335 335 336
317 318 318 315 314 314 315 317 318 318 320 323 332 343 347 354 354 354 352 354 354 351 341 342 345 353 360 349 348 345 340 334 336 337 335 331 331 333 338 337 333 331 331 328 328 330 333 334 336
320 320 320 319 316 315 317 317 319 320 321 324 325 349 352 354 353 353 351 351 351 349 340 340 343 350 354 349 348 345 339 337 340 339 337 333 331 334 336 335 333 332 331 329 327 326 325 325 325
321 322 321 318 316 317 316 317 318 321 321 322 335 347 349 353 353 352 350 349 348 348 346 340 343 346 349 349 347 346 342 342 343 342 338 334 331 332 333 334 336 338 334 331 331 330 329 326 324
318 324 320 319 318 317 318 318 318 319 318 319 319 346 345 345 349 352 351 348 347 346 345 345 344 347 348 350 347 346 345 345 344 342 336 333 336 339 334 342 341 338 336 333 330 327 329 335 335
312 319 321 320 319 319 318 319 319 319 317 319 319 331 343 342 345 348 352 348 346 345 344 344 343 346 347 343 344 344 344 343 341 338 335 330 338 340 339 343 342 341 342 338 333 339 338 340 341
315 314 317 320 320 320 319 319 318 318 319 318 318 319 338 340 340 345 350 351 347 346 344 343 341 342 343 343 336 339 338 339 336 339 338 333 337 341 340 337 342 342 345 342 341 341 341 342 344
314 317 316 317 319 320 320 318 317 318 319 320 320 320 319 335 341 342 344 347 350 347 343 343 341 341 344 342 337 342 342 342 341 341 340 334 337 341 340 342 344 347 345 346 345 344 342 341 340
316 316 319 318 318 320 319 318 318 318 319 318 319 319 319 327 337 341 344 346 352 351 349 344 343 344 348 344 342 344 344 343 344 344 345 337 343 347 349 347 348 346 348 348 345 344 343 342 340
318 318 318 319 319 320 317 318 318 317 317 317 319 318 318 320 319 331 343 343 354 352 349 347 346 345 350 346 343 346 347 346 347 346 347 347 347 352 351 350 350 350 348 347 346 344 344 344 345
320 319 319 319 320 320 321 319 318 316 316 316 317 317 317 318 319 319 330 341 353 353 347 346 347 351 349 354 351 353 351 350 351 352 350 350 349 349 350 349 348 351 349 347 347 347 346 345 345
323 319 319 319 320 321 321 320 317 317 316 317 317 317 316 316 316 318 320 346 353 349 347 347 342 349 347 351 353 353 352 353 351 353 352 352 352 350 348 348 350 349 348 347 346 343 345 347 346
321 320 320 320 320 320 320 320 317 317 316 316 316 316 315 316 316 319 320 341 351 351 346 350 343 348 351 351 353 353 351 351 352 352 352 352 350 352 351 350 350 347 346 346 347 346 344 344 344
319 321 320 320 321 320 319 319 318 318 317 316 317 316 316 316 317 319 320 352 352 351 346 335 343 353 353 353 352 352 352 350 350 352 352 350 351 351 348 349 348 346 347 347 347 346 346 345 343
316 321 320 320 320 321 320 320 319 319 318 317 318 317 317 317 317 318 319 358 357 353 346 338 343 342 345 352 354 352 350 350 350 350 351 351 350 349 349 348 347 346 345 346 344 343 341 340 338
317 319 321 321 320 320 320 321 320 319 319 318 318 317 317 317 318 318 336 353 353 354 354 352 349 347 349 351 353 352 352 350 348 348 349 349 348 347 346 345 344 343 341 341 338 337 336 335 335
315 317 320 321 322 323 321 320 321 319 320 320 318 318 318 317 318 318 346 354 352 351 348 335 348 348 354 352 352 352 349 349 348 348 347 346 343 342 342 341 340 337 336 334 332 333 332 331 332
314 316 319 320 321 325 325 319 318 320 320 320 319 319 319 318 318 329 342 356 351 350 345 333 335 351 352 351 351 351 349 348 348 347 343 341 338 337 336 334 330 328 327 325 322 320 326 324 323
311 315 321 324 324 333 326 324 319 320 320 319 319 319 319 318 317 333 344 352 350 351 347 344 350 349 350 350 349 348 347 347 347 343 340 335 333 331 327 327 325 320 319 317 316 318 319 318 319
311 311 328 331 327 327 326 328 321 320 321 320 320 318 318 317 316 334 350 351 348 348 345 345 348 349 349 349 348 347 347 346 342 344 335 330 329 325 323 321 319 319 319 319 317 320 319 319 317
318 314 318 324 323 326 327 326 329 324 324 320 320 319 318 317 322 339 347 345 344 343 342 344 343 341 339 336 337 333 331 328 327 327 327 322 321 320 320 319 319 318 317 318 317 316 317 317 318
317 315 318 326 331 331 328 326 328 330 328 321 319 318 325 340 342 342 342 340 339 338 336 335 334 332 330 328 328 327 325 325 324 323 321 320 320 319 317 317 317 316 317 316 317 317 318 317 318
318 320 320 322 326 325 331 329 330 338 322 328 334 337 341 341 339 338 337 336 335 334 334 332 329 327 326 325 324 323 322 321 321 320 319 318 317 316 316 316 316 316 317 317 317 316 315 315 316
317 318 321 325 326 327 330 333 334 335 335 335 334 341 340 338 336 335 334 333 332 331 328 327 326 324 323 322 321 321 320 319 318 317 316 316 316 316 316 316 317 317 316 315 314 313 311 312 314